CW5398 Weather Reports


Display with metric or nautical units.
time (UTC)temp
F
wind
direction
speed
MPH
gust
MPH
rain 1hr
in
rain 24hr
in
rain mn
in
humidity
%
barometer
mb
20260505004016 72 248 0.0 3.0 0.00 0.00 0.00 65 1009.2
20260505003017 72 248 1.0 4.0 0.00 0.00 0.00 65 1009.2
20260505002016 72 248 0.0 4.0 0.00 0.00 0.00 63 1009.2
20260505001016 73 248 1.0 4.0 0.00 0.00 0.00 62 1009.1
20260505000016 72 248 0.0 2.0 0.00 0.00 0.00 62 1009.1
20260504235015 72 248 0.0 3.0 0.00 0.00 0.00 62 1009.2
20260504234035 72 248 0.0 3.0 0.00 0.00 0.00 63 1009.3
20260504233016 72 248 0.0 1.0 0.00 0.00 0.00 63 1009.3
20260504232016 72 248 1.0 8.0 0.00 0.00 0.00 60 1009.3
20260504231015 72 248 1.0 7.0 0.00 0.00 0.00 61 1009.5
20260504230015 73 248 1.0 4.0 0.00 0.00 0.00 59 1009.5
20260504225016 73 248 1.0 8.0 0.00 0.00 0.00 60 1009.6
20260504224015 75 248 3.0 9.0 0.00 0.00 0.00 59 1009.6
20260504223036 76 203 1.0 4.0 0.00 0.00 0.00 59 1009.6
20260504222016 76 203 1.0 4.0 0.00 0.00 0.00 60 1009.6
20260504221015 76 203 1.0 6.0 0.00 0.00 0.00 59 1009.7
20260504220036 76 203 2.0 6.0 0.00 0.00 0.00 61 1009.7
20260504215015 76 203 2.0 7.0 0.00 0.00 0.00 60 1009.8
20260504214015 76 203 1.0 6.0 0.00 0.00 0.00 59 1010.1
20260504213035 75 203 1.0 6.0 0.00 0.00 0.00 61 1010.1
20260504212044 75 203 1.0 7.0 0.00 0.00 0.00 59 1010.1
20260504211015 75 203 3.0 7.0 0.00 0.00 0.00 61 1010.1
20260504210035 74 203 2.0 6.0 0.00 0.00 0.00 63 1010.0
20260504205015 74 203 1.0 6.0 0.00 0.00 0.00 61 1010.1
20260504204036 74 203 2.0 7.0 0.00 0.00 0.00 56 1010.1
20260504203035 74 203 2.0 7.0 0.00 0.00 0.00 58 1010.1
20260504202015 74 203 1.0 7.0 0.00 0.00 0.00 62 1010.0
20260504201015 74 203 3.0 8.0 0.00 0.00 0.00 59 1010.1
20260504200015 74 225 3.0 7.0 0.00 0.00 0.00 60 1010.1
20260504195017 75 248 2.0 8.0 0.00 0.00 0.00 60 1010.0
20260504194017 75 248 1.0 5.0 0.00 0.00 0.00 56 1010.1
20260504193017 74 248 0.0 3.0 0.00 0.00 0.00 55 1010.1
20260504192017 74 248 1.0 6.0 0.00 0.00 0.00 59 1010.1
20260504191017 73 248 1.0 6.0 0.00 0.00 0.00 58 1010.1
20260504190017 72 248 0.0 4.0 0.00 0.00 0.00 60 1010.1
20260504185017 73 248 1.0 5.0 0.00 0.00 0.00 60 1010.1
20260504184017 73 248 1.0 4.0 0.00 0.00 0.00 62 1010.2
20260504183017 73 248 1.0 5.0 0.00 0.00 0.00 61 1010.2
20260504182017 74 248 1.0 6.0 0.00 0.00 0.00 61 1010.4
20260504181017 74 248 1.0 4.0 0.00 0.00 0.00 59 1010.3
20260504180017 72 248 0.0 1.0 0.00 0.00 0.00 60 1010.2
20260504175017 71 248 1.0 4.0 0.00 0.00 0.00 64 1010.2
20260504174037 69 248 1.0 5.0 0.00 0.00 0.00 65 1010.2
20260504173017 70 248 2.0 7.0 0.00 0.00 0.00 63 1010.3
20260504172017 70 270 1.0 6.0 0.00 0.00 0.00 64 1010.3
20260504171017 70 270 0.0 2.0 0.00 0.00 0.00 62 1010.4
20260504151017 60 248 0.0 4.0 0.00 0.00 0.00 79 1009.8
20260504141016 53 248 0.0 1.0 0.00 0.00 0.00 90 1009.6
20260504081016 55 248 0.0 1.0 0.00 0.00 0.00 83 1008.8
20260504050017 59 250 0.0 0.0 0.00 0.00 0.00 80 1009.3
20260504045017 60 250 0.0 0.0 0.00 0.00 0.00 78 1009.2
20260504044017 60 250 0.0 0.0 0.00 0.00 0.00 75 1009.1
20260504043017 60 250 0.0 0.0 0.00 0.00 0.00 75 1009.1
20260504042017 61 250 0.0 0.0 0.00 0.00 0.00 76 1009.1
20260504041037 62 250 0.0 0.0 0.00 0.00 0.00 75 1009.1
20260504040017 63 250 0.0 0.0 0.00 0.00 0.00 75 1009.1
20260504035017 64 250 0.0 0.0 0.00 0.00 0.00 77 1009.0
20260504034017 65 250 0.0 0.0 0.00 0.00 0.00 75 1008.9
20260504033017 66 250 0.0 0.0 0.00 0.00 0.00 73 1008.9
20260504032017 67 250 0.0 0.0 0.00 0.00 0.00 71 1008.9
20260504031036 68 250 0.0 0.0 0.00 0.00 0.00 69 1009.0
20260504030017 69 250 0.0 0.0 0.00 0.00 0.00 66 1009.0
20260504025017 71 250 0.0 0.0 0.00 0.00 0.00 63 1009.1
20260504024017 72 250 0.0 0.0 0.00 0.00 0.00 58 1009.2
20260504023017 73 250 0.0 0.0 0.00 0.00 0.00 56 1009.1
20260504022017 74 250 0.0 0.0 0.00 0.00 0.00 55 1009.1
20260504021016 74 250 0.0 0.0 0.00 0.00 0.00 54 1009.3
20260504020016 75 248 0.0 1.0 0.00 0.00 0.00 50 1009.3
20260504015016 75 248 0.0 1.0 0.00 0.00 0.00 49 1009.6
20260504014017 75 248 0.0 1.0 0.00 0.00 0.00 49 1009.6
20260504013017 75 248 0.0 5.0 0.00 0.00 0.00 48 1009.6
20260504012016 75 248 3.0 5.0 0.00 0.00 0.00 48 1009.9
20260504011017 76 248 1.0 6.0 0.00 0.00 0.00 48 1010.1
20260504010017 77 248 1.0 5.0 0.00 0.00 0.00 48 1010.1
20260504005016 77 248 0.0 5.0 0.00 0.00 0.00 46 1010.2